Regional Weather Roundup
Issued by NWS Charleston, WV

Home | Current Version | Previous Version | Graphics & Text | Print | Product List | Glossary On
Versions: 1 2 3 4 5 6 7 8 9 10 11 12 13 14 15 16 17 18 19 20 21 22 23 24 25 26 27
000
ASUS41 KRLX 271810
RWRRLX
West Virginia Regional Weather Roundup
National Weather Service Charleston WV
200 PM EDT FRI MAY 27 2016

Note: "fair" indicates few or no clouds below 12,000 feet with no
significant weather and/or obstructions to visibility.

WVZ003-271900-
Northern Panhandle of West Virginia

CITY           SKY/WX    TMP DP  RH WIND       PRES   REMARKS
WHEELING         N/A     83  62  49 SW13G18   30.07S
$$

WVZ009-271900-
Northwest West Virginia

CITY           SKY/WX    TMP DP  RH WIND       PRES   REMARKS
PARKERSBURG      N/A     84  65  52 VRB7      30.09F
$$

WVZ006-271900-
Western West Virginia

CITY           SKY/WX    TMP DP  RH WIND       PRES   REMARKS
HUNTINGTON       N/A     86  67  52 W5        30.06F
$$

WVZ015-271900-
West Central West Virginia

CITY           SKY/WX    TMP DP  RH WIND       PRES   REMARKS
CHARLESTON       N/A     87  63  44 CALM      30.07F
$$

WVZ022-031-271900-
North Central West Virginia

CITY           SKY/WX    TMP DP  RH WIND       PRES   REMARKS
CLARKSBURG     PTSUNNY   82  63  52 SW7       30.09S
MORGANTOWN       N/A     86  60  41 SW8       30.09F
$$

WVZ025-035-042-045-271900-
Southern West Virginia

CITY           SKY/WX    TMP DP  RH WIND       PRES   REMARKS
BECKLEY          N/A     83  57  41 VRB5      30.16F
LOGAN            N/A     82  64  54 S5        30.11F
BLUEFIELD      CLOUDY    74  58  57 CALM      30.20S
LEWISBURG        N/A     80  57  44 SW3       30.16F
$$

WVZ047-271900-
Northern Mountains of West Virginia

CITY           SKY/WX    TMP DP  RH WIND       PRES   REMARKS
ELKINS           N/A     84  59  42 W7        30.12F
$$

WVZ052-271900-
Eastern Panhandle of West Virginia

CITY           SKY/WX    TMP DP  RH WIND       PRES   REMARKS
MARTINSBURG      N/A     87  66  49 SE6       30.05F
PETERSBURG       N/A     89  66  46 NE3       30.06F
$$




USA.gov is the U.S. government's official web portal to all federal, state and local government web resources and services.